Weather in Bol'shoye Popovo

Russia / Lipetsk Oblast     52°55′28″N   39°05′19″E
temp.,
°C
wind,
m/s
gust,
m/s
humid.,
%
clouds,
%
prec.,
mm/h
press.,
hPa
HPBL,
m
5 december, sun
sun500:00−3sw35865 0.0 1015152
03:00−3wsw238913 0.0 101682
06:00−3sw238594 0.0 101560
09:00−2ssw2479100 0.0 1016204
12:00−1s3470100 0.0 1017309
15:00−1ssw22665 0.0 101763
18:00−3sse22705 0.0 101818
21:00−3s2269100 0.0 101928
6 december, mon
mon600:00−3s226999 0.0 102040
03:00−3sse2370100 0.0 102049
06:00−3sse2369100 0.0 102165
09:00−3se3665100 0.0 1022197
12:00−1se4853100 0.0 1022367
15:00−1se4854100 0.0 1021367
18:00−2se41059100 0.0 1021320
21:00−2se5106895 0.0 1021329
7 december, tue
tue700:00−2se51185100 0.0 1021378
03:00−1se61288100 0.0 1020496
06:00−1se71597100 1.6 1017506
09:000se71696100 5.8 1016588
12:00+1sse71598100 1.3 1015467
15:00+2sse71498100 2.8 1014434
18:00+3sse71798100 2.7 1013476
21:00+4s71797100 3.1 1013404
8 december, wed
wed800:00+3s61593100 0.7 1013425
03:00+3s61493100 0.7 1013377
06:00+2sse51394100 0.0 1013306
09:00+1sse41195100 0.0 1014253
12:00+2sse4996100 0.0 1014291
15:00+2se3796100 0.0 1013187
18:00+1ese3694100 0.0 1014129
21:00+1ese4896100 0.0 1013196
9 december, thu
thu900:00+1se3897100 0.0 1014194
03:00+1ese3698100 0.0 1014119
06:00+1ese3697100 0.0 1013112
09:00+2se4109798 0.3 1014230
12:00+3ese4994100 0.0 1013288
15:00+2se389498 0.0 1014218
18:00+2se3696100 0.0 1015167
21:00+2se3496100 0.0 1015100